Weather Roundup
Issued by NWS

Home | Current Version | Previous Version | Text Only | Print | Product List | Glossary On
Versions: 1 2 3 4 5 6 7 8 9 10 11 12 13 14 15 16 17 18 19 20 21 22 23 24 25 26 27 28 29 30 31 32 33 34 35 36 37 38 39 40 41 42 43 44 45 46 47 48 49 50
000
NZUS93 KARX 191510
HRRWXR

CURRENT HOURLY OBSERVATIONS ACROSS
MUCH OF THE UPPER MISSISSIPPI VALLEY
NATIONAL WEATHER SERVICE LA CROSSE WI
1000 AM CDT SAT APR 19 2014


...SOUTHEAST MINNESOTA...


CITY           SKY/WX    TMP DP  RH WIND       PRES   REMARKS
ROCHESTER      PTSUNNY   46  31  55 SE25G33   30.16F
ROCHESTER/MAYO FAIR      45  25  45 SE23G32   30.16F
WINONA         MOSUNNY   48  28  46 SE17G24   30.22F
AUSTIN         PTSUNNY   46  30  53 SE17G23   30.14F
ALBERT LEA     PTSUNNY   46  34  61 S25G35    30.11F
DODGE CENTER   PTSUNNY   46  34  61 S26G35    30.13S
PRESTON        MOSUNNY   46  28  49 S16G23    30.21F
OWATONNA       PTSUNNY   46  34  61 SE24G32   30.11S
FARIBAULT      PTSUNNY   50  30  46 S18G29    30.09F
$$

...ELSEWHERE IN MINNESOTA...


CITY           SKY/WX    TMP DP  RH WIND       PRES   REMARKS
MINNEAPOLIS    CLOUDY    48  32  53 SE22G35   30.11F
INTNL FALLS    LGT RAIN  36  32  85 SE15G25   29.93F WCI  27
DULUTH         CLOUDY    33  29  85 SE16      30.08F WCI  23
RED WING       PTSUNNY   48  27  43 SE20G26   30.14F
REDWOOD FALLS  CLOUDY    54  39  57 S23       29.98F
MANKATO        PTSUNNY   48  36  61 S24G32    30.06S
WORTHINGTON    MOSUNNY   61  39  44 S22G36    30.00S
FAIRMONT       CLOUDY    54  36  50 S28G33    30.06S
$$

...SOUTHWEST WISCONSIN...


CITY           SKY/WX    TMP DP  RH WIND       PRES   REMARKS
LA CROSSE      MOSUNNY   50  26  39 SE16      30.27F
PRAIRIE DU CHI SUNNY     48  26  41 SE14      30.30F
BOSCOBEL       MOSUNNY   50  25  37 SE8       30.32F
LONE ROCK      MOSUNNY   48  28  46 SE10      30.33F
PLATTEVILLE    MOSUNNY   48  29  47 SE14      30.32F
FORT MC COY    SUNNY     46  22  38 SE13G20   30.29F
CAMP DOUGLAS   MOSUNNY   46  24  43 SE18G24   30.30F
VIROQUA        FAIR      46  27  47 SE20      30.27F
WIS DELLS      MOSUNNY   45  25  45 SE9       30.34S
$$

...ELSEWHERE IN WISCONSIN...


CITY           SKY/WX    TMP DP  RH WIND       PRES   REMARKS
MILWAUKEE      PTSUNNY   41  32  70 E12       30.42F
MADISON        MOSUNNY   47  29  49 SE12G21   30.35F
GREEN BAY      SUNNY     40  31  70 SE14      30.40F WCI  32
EAU CLAIRE     MOSUNNY   46  25  43 S18G26    30.21F
BLACK RVR FLS  FAIR      46  22  38 SE10G18   30.26F
MEDFORD        SUNNY     38  26  61 SE15G22   30.27F WCI  30
WAUSAU         SUNNY     41  25  53 SE16      30.29F
WIS RAPIDS     SUNNY     44  24  45 SE14G20   30.33F
MARSHFIELD     SUNNY     42  26  53 SE15      30.28F
RICE LAKE      CLOUDY    42  26  52 SE18      30.19S
$$

...NORTHEAST IOWA...


CITY           SKY/WX    TMP DP  RH WIND       PRES   REMARKS
WATERLOO       SUNNY     51  29  42 SE18      30.22F
DUBUQUE        SUNNY     50  26  39 SE17G24   30.30F
DECORAH        SUNNY     45  27  49 SE12G23   30.25F
MASON CITY     MOSUNNY   49  35  58 SE24G32   30.16F
CHARLES CITY   SUNNY     48  30  49 S22G29    30.21S
OELWEIN        SUNNY    N/A N/A N/A SE29G35   30.24F
$$

...ELSEWHERE IN IOWA...


CITY           SKY/WX    TMP DP  RH WIND       PRES   REMARKS
DES MOINES     PTSUNNY   62  40  44 SE14      30.18S
IOWA CITY      SUNNY     51  28  41 SE15      30.29F
FORT DODGE     SUNNY     57  37  47 S16G23    30.12F
MARSHALLTOWN   SUNNY     52  37  56 SE16      30.21S
CEDAR RAPIDS   SUNNY     50  26  39 SE16      30.26F
$$

...NORTHERN ILLINOIS...


CITY           SKY/WX    TMP DP  RH WIND       PRES   REMARKS
CHICAGO-OHARE  MOSUNNY   47  33  58 E9        30.38S
DUPAGE         SUNNY     50  34  54 E12       30.36F
CHICAGO-MIDWAY MOSUNNY   48  37  65 E7        30.38S
MOLINE         SUNNY     54  26  34 E12       30.31F
ROCKFORD       PTSUNNY   50  32  50 E10       30.37F
STERLING       MOSUNNY   54  34  47 SE13      30.33F
PEORIA         SUNNY     57  28  33 SE8       30.32F
$$

NOTE: "FAIR" INDICATES FEW OR NO CLOUDS BELOW 12,000 FEET WITH NO
SIGNIFICANT WEATHER AND/OR OBSTRUCTIONS TO VISIBILITY. WIND
SPEEDS ARE IN MILES-PER-HOUR.



USA.gov is the U.S. government's official web portal to all federal, state and local government web resources and services.